Location: Isle of Man Observatory
(54.1776°N, 4.6264°W)
Time: 06:49:23
(UTC+02:00)

Envisat - Pass Details

Date: 22 May 2026
Orbit: 761 x 763 km, 98.4° (Epoch: 11 June)

Event Time Altitude Azimuth Distance (km) Brightness Sun altitude
Rises 04:43:12 0° 18° (NNE) 3,238 7.9 -9.0°
Reaches altitude 10° 04:45:35 10° 23° (NNE) 2,307 7.0 -8.8°
Maximum altitude 04:50:33 53° 100° (E) 940 3.7 -8.3°
Drops below altitude 10° 04:55:29 10° 177° (S) 2,290 5.0 -7.9°
Enters shadow 04:57:05 - 181° (S) 2,914 5.5 -7.8°
